Regional Weather Roundup
Issued by NWS

Home | Current Version | Previous Version | Graphics & Text | Print | Product List | Glossary On
Versions: 1 2 3 4 5 6 7 8 9 10 11 12 13 14 15 16 17 18 19 20 21 22 23 24 25 26 27 28
000
ASUS45 KCYS 291010
RWRWY

WYOMING REGIONAL WEATHER ROUNDUP
NATIONAL WEATHER SERVICE CHEYENNE WY
400 AM MDT WED OCT 29 2014

NOTE:  "FAIR" INDICATES FEW OR NO CLOUDS BELOW 12,000 FEET
WITH NO SIGNIFICANT WEATHER AND/OR OBSTRUCTIONS TO VISIBILITY.

WYZ001-291100-
YELLOWSTONE NATIONAL PARK

CITY           SKY/WX    TMP DP  RH WIND       PRES   REMARKS
LK YELLOWSTONE   N/A     18  15  88 NW3       30.24
W YELLOWSTONE  NOT AVBL

$$
WYZ002>013-054>058-071-098>099-291100-
NORTHERN WYOMING

CITY           SKY/WX    TMP DP  RH WIND       PRES   REMARKS
JACKSON        PTCLDY    19  18  93 NE3       30.26F
CODY           PTCLDY    48  16  27 S10       30.08
GREYBULL       PTCLDY    27  16  63 CALM      30.10F
WORLAND        PTCLDY    24  13  62 S5        30.09F WCI  18
SHERIDAN       PTCLDY    29  18  63 SE3       30.01F
BUFFALO        PTCLDY    41  16  36 SW8       30.05F
GILLETTE       CLEAR     35  16  45 S14       30.04F WCI  26
HULETT         FAIR      41  19  42 SW9       30.06
NEWCASTLE      FAIR      32  18  55 CALM      30.11

$$
WYZ014>020-022>026-101>103-291100-
CENTRAL WYOMING

CITY           SKY/WX    TMP DP  RH WIND       PRES   REMARKS
BIG PINEY      PTCLDY    18  11  74 CALM      30.29S
PINEDALE       MOSUNNY   21  18  86 NW7       30.29  WCI  13
DUBOIS         FAIR      32  14  47 N14G22    30.17F WCI  22
LANDER         PTCLDY    31  15  52 VRB3      30.14S
RIVERTON       PTCLDY    29  14  53 W3        30.14F
CASPER         CLEAR     40   9  28 VRB6      30.13F
DOUGLAS        PTCLDY    20  14  77 CALM      30.13F

$$
WYZ021-027>030-104>119-291100-
SOUTHERN WYOMING

CITY           SKY/WX    TMP DP  RH WIND       PRES   REMARKS
EVANSTON       PTCLDY    36   7  29 S6        30.29F WCI  31
FORT BRIDGER   FAIR      35   8  31 W12       30.31S WCI  27
ROCK SPRINGS   PTCLDY    30  11  45 S10       30.27F WCI  21
DIXON          FAIR      21  15  77 CALM      30.32F
RAWLINS        PTCLDY    36   8  31 SW7       30.25S WCI  30
SARATOGA       FAIR      28  12  50 S8        30.28R WCI  20
LARAMIE        PTCLDY    37   9  31 SW21      30.22S WCI  26
CHEYENNE       CLEAR     39  15  37 W6        30.18F WCI  35
TORRINGTON     PTCLDY    23  18  81 W3        30.13F
PINE BLUFFS    FAIR      30  23  74 SW6       30.18S WCI  24

$$



USA.gov is the U.S. government's official web portal to all federal, state and local government web resources and services.